VIASAT-1 (37843 NORAD) Tracking and Keplerian Element Data

This shows tracking and keplerian element data for the satellite.

Feedback or suggestion? Click here.




ElementValue
Catalog37843
NameVIASAT-1
Epoch Orbit4927
Epoch Day34.73187942
Epoch Year2025
RAAN106.3673
Inclination0.011
Eccentricity0.0002135
Argument of Perigee208.261
Mean Anonmoly327.8362
Mean Motion1.00268501
Decay Rate-1.9E-07
L11 37843U 11059A 25034.73187942 -.00000019 00000+0 00000+0 0 9995
L22 37843 0.0110 106.3673 0002135 208.2610 327.8362 1.00268501 49271



Live tracking and technical data element details for VIASAT-1 (NORAD 37843). VIASAT-1 can be tracked NOW for your location showing map with azimuth and elevation plus other details from your city location.







IsCatalogInMostPopularTable: catalog: 37843, numindb: 380
Update: records affected: 1



GetName: 37843 VIASAT-1

Hit Count: updated at: Thu, 15 May 2025 20:01:47 GMT